START_TIME,STEP,MOV.,EG07,t_acc.,EG08,t_acc.,EG09,t_acc.,EB05,t_acc.,EBP05,t_acc.
1981-08-30 12:00:23.370 ,5,0,1.,1.2,0.,1.2,0.,1.2,,0.0,,0.0
1981-08-30 12:00:24.570 ,5,0,1.,1.2,1.,1.2,0.,1.2,,0.0,,0.0
1981-08-30 12:00:25.770 ,5,0,1.,1.2,0.,1.2,0.,1.2,,0.0,,0.0
1981-08-30 12:00:26.970 ,5,0,0.,1.2,0.,1.2,0.,1.2,,0.0,,0.0
1981-08-30 12:00:28.170 ,5,0,0.,1.2,0.,1.2,0.,1.2,,0.0,,0.0
1981-08-30 12:00:29.370 ,5,0,0.,1.2,0.,1.2,0.,1.2,,0.0,,0.0
1981-08-30 12:00:30.570 ,5,0,2.,1.2,1.,1.2,1.,1.2,,0.0,,0.0
1981-08-30 12:00:31.770 ,5,0,0.,1.2,0.,1.2,0.,1.2,,0.0,,0.0
1981-08-30 12:00:32.970 ,5,0,0.,1.2,0.,1.2,0.,1.2,,0.0,,0.0
1981-08-30 12:00:34.170 ,5,0,1.,1.2,0.,1.2,0.,1.2,,0.0,,0.0
1981-08-30 12:00:35.370 ,5,0,0.,1.2,0.,1.2,0.,1.2,,0.0,,0.0
1981-08-30 12:00:36.570 ,5,0,0.,1.2,0.,1.2,0.,1.2,,0.0,,0.0
1981-08-30 12:00:37.770 ,5,0,1.,1.2,0.,1.2,0.,1.2,,0.0,,0.0
1981-08-30 12:00:38.970 ,5,0,0.,1.2,0.,1.2,0.,1.2,,0.0,,0.0
1981-08-30 12:00:40.170 ,5,0,0.,1.2,0.,1.2,0.,1.2,,0.0,,0.0
1981-08-30 12:00:41.370 ,5,0,0.,1.2,0.,1.2,0.,1.2,,0.0,,0.0
1981-08-30 12:00:42.570 ,5,0,0.,1.2,0.,1.2,0.,1.2,,0.0,,0.0
1981-08-30 12:00:43.770 ,5,0,0.,1.2,0.,1.2,0.,1.2,,0.0,,0.0
1981-08-30 12:00:44.970 ,5,0,0.,1.2,0.,1.2,0.,1.2,,0.0,,0.0
1981-08-30 12:00:46.170 ,5,0,1.,1.2,1.,1.2,0.,1.2,,0.0,,0.0
1981-08-30 12:00:47.370 ,6,0,0.,1.2,0.,1.2,0.,1.2,,0.0,,0.0
1981-08-30 12:00:48.570 ,6,0,0.,1.2,0.,1.2,0.,1.2,,0.0,,0.0
1981-08-30 12:00:49.770 ,6,0,0.,1.2,0.,1.2,0.,1.2,,0.0,,0.0
1981-08-30 12:00:50.970 ,6,0,0.,1.2,0.,1.2,0.,1.2,,0.0,,0.0
1981-08-30 12:00:52.170 ,6,0,0.,1.2,0.,1.2,0.,1.2,,0.0,,0.0
1981-08-30 12:00:53.370 ,6,0,0.,1.2,0.,1.2,0.,1.2,,0.0,,0.0
1981-08-30 12:00:54.570 ,6,0,0.,1.2,0.,1.2,0.,1.2,,0.0,,0.0
1981-08-30 12:00:55.770 ,6,0,0.,1.2,0.,1.2,0.,1.2,,0.0,,0.0
1981-08-30 12:00:56.970 ,6,0,0.,1.2,0.,1.2,0.,1.2,,0.0,,0.0
1981-08-30 12:00:58.170 ,6,0,0.,1.2,0.,1.2,0.,1.2,,0.0,,0.0
1981-08-30 12:00:59.370 ,6,0,0.,1.2,0.,1.2,0.,1.2,,0.0,,0.0
1981-08-30 12:01:00.570 ,6,0,0.,1.2,0.,1.2,0.,1.2,,0.0,,0.0
1981-08-30 12:01:01.770 ,6,0,2.,1.2,1.,1.2,0.,1.2,,0.0,,0.0
1981-08-30 12:01:02.970 ,6,0,0.,1.2,0.,1.2,0.,1.2,,0.0,,0.0
1981-08-30 12:01:04.170 ,6,0,0.,1.2,0.,1.2,0.,1.2,,0.0,,0.0
1981-08-30 12:01:05.370 ,6,0,0.,1.2,0.,1.2,0.,1.2,,0.0,,0.0
1981-08-30 12:01:06.570 ,6,0,0.,1.2,0.,1.2,0.,1.2,,0.0,,0.0
1981-08-30 12:01:07.770 ,6,0,0.,1.2,0.,1.2,0.,1.2,,0.0,,0.0
1981-08-30 12:01:08.970 ,6,0,0.,1.2,0.,1.2,0.,1.2,,0.0,,0.0
1981-08-30 12:01:10.170 ,6,0,0.,1.2,0.,1.2,0.,1.2,,0.0,,0.0
1981-08-30 12:01:11.370 ,6,0,0.,1.2,0.,1.2,0.,1.2,,0.0,,0.0
1981-08-30 12:01:12.570 ,6,0,0.,1.2,0.,1.2,0.,1.2,,0.0,,0.0
1981-08-30 12:01:13.770 ,6,0,1.,1.2,0.,1.2,0.,1.2,,0.0,,0.0
1981-08-30 12:01:14.970 ,6,0,1.,1.2,1.,1.2,0.,1.2,,0.0,,0.0
1981-08-30 12:01:16.170 ,6,0,0.,1.2,0.,1.2,0.,1.2,,0.0,,0.0
1981-08-30 12:01:17.370 ,6,0,0.,1.2,0.,1.2,0.,1.2,,0.0,,0.0
1981-08-30 12:01:18.570 ,6,0,0.,1.2,0.,1.2,0.,1.2,,0.0,,0.0
1981-08-30 12:01:19.770 ,6,0,0.,1.2,0.,1.2,0.,1.2,,0.0,,0.0
1981-08-30 12:01:20.970 ,6,0,0.,1.2,0.,1.2,0.,1.2,,0.0,,0.0
1981-08-30 12:01:22.170 ,6,0,0.,1.2,0.,1.2,0.,1.2,,0.0,,0.0
1981-08-30 12:01:23.370 ,6,0,0.,1.2,0.,1.2,0.,1.2,,0.0,,0.0
1981-08-30 12:01:24.570 ,6,0,0.,1.2,0.,1.2,0.,1.2,,0.0,,0.0
1981-08-30 12:01:25.770 ,6,0,0.,1.2,0.,1.2,0.,1.2,,0.0,,0.0
1981-08-30 12:01:26.970 ,6,0,0.,1.2,0.,1.2,0.,1.2,,0.0,,0.0
1981-08-30 12:01:28.170 ,6,0,1.,1.2,1.,1.2,1.,1.2,,0.0,,0.0
1981-08-30 12:01:29.370 ,6,0,0.,1.2,0.,1.2,0.,1.2,,0.0,,0.0
1981-08-30 12:01:30.570 ,6,0,0.,1.2,0.,1.2,0.,1.2,,0.0,,0.0
1981-08-30 12:01:31.770 ,6,0,0.,1.2,0.,1.2,0.,1.2,,0.0,,0.0
1981-08-30 12:01:32.970 ,6,0,0.,1.2,0.,1.2,0.,1.2,,0.0,,0.0
1981-08-30 12:01:34.170 ,6,0,1.,1.2,0.,1.2,0.,1.2,,0.0,,0.0
1981-08-30 12:01:35.370 ,7,0,0.,1.2,0.,1.2,0.,1.2,,0.0,,0.0
1981-08-30 12:01:36.570 ,7,0,0.,1.2,0.,1.2,0.,1.2,,0.0,,0.0
1981-08-30 12:01:37.770 ,7,0,0.,1.2,0.,1.2,0.,1.2,,0.0,,0.0
1981-08-30 12:01:38.970 ,7,0,0.,1.2,0.,1.2,0.,1.2,,0.0,,0.0
1981-08-30 12:01:40.170 ,7,0,0.,1.2,0.,1.2,0.,1.2,,0.0,,0.0
1981-08-30 12:01:41.370 ,7,0,0.,1.2,0.,1.2,0.,1.2,,0.0,,0.0
1981-08-30 12:01:42.570 ,7,0,0.,1.2,0.,1.2,0.,1.2,,0.0,,0.0
1981-08-30 12:01:43.770 ,7,0,0.,1.2,0.,1.2,0.,1.2,,0.0,,0.0
1981-08-30 12:01:44.970 ,7,0,0.,1.2,0.,1.2,0.,1.2,,0.0,,0.0
1981-08-30 12:01:46.170 ,7,0,0.,1.2,0.,1.2,0.,1.2,,0.0,,0.0
1981-08-30 12:01:47.370 ,7,0,0.,1.2,0.,1.2,0.,1.2,,0.0,,0.0
1981-08-30 12:01:48.570 ,7,0,0.,1.2,0.,1.2,0.,1.2,,0.0,,0.0
1981-08-30 12:01:49.770 ,7,0,0.,1.2,0.,1.2,0.,1.2,,0.0,,0.0
1981-08-30 12:01:50.970 ,7,0,1.,1.2,1.,1.2,0.,1.2,,0.0,,0.0
1981-08-30 12:01:52.170 ,7,0,0.,1.2,0.,1.2,0.,1.2,,0.0,,0.0
1981-08-30 12:01:53.370 ,7,0,0.,1.2,0.,1.2,0.,1.2,,0.0,,0.0
1981-08-30 12:01:54.570 ,7,0,1.,1.2,1.,1.2,0.,1.2,,0.0,,0.0
1981-08-30 12:01:55.770 ,7,0,0.,1.2,0.,1.2,0.,1.2,,0.0,,0.0
1981-08-30 12:01:56.970 ,7,0,0.,1.2,0.,1.2,0.,1.2,,0.0,,0.0
1981-08-30 12:01:58.170 ,7,0,0.,1.2,0.,1.2,0.,1.2,,0.0,,0.0
1981-08-30 12:01:59.370 ,7,0,0.,1.2,0.,1.2,0.,1.2,,0.0,,0.0
1981-08-30 12:02:00.570 ,7,0,1.,1.2,1.,1.2,0.,1.2,,0.0,,0.0
1981-08-30 12:02:01.770 ,7,0,0.,1.2,0.,1.2,0.,1.2,,0.0,,0.0
1981-08-30 12:02:02.970 ,7,0,0.,1.2,0.,1.2,0.,1.2,,0.0,,0.0
1981-08-30 12:02:04.170 ,7,0,1.,1.2,0.,1.2,0.,1.2,,0.0,,0.0
1981-08-30 12:02:05.370 ,7,0,0.,1.2,0.,1.2,0.,1.2,,0.0,,0.0
1981-08-30 12:02:06.570 ,7,0,0.,1.2,0.,1.2,0.,1.2,,0.0,,0.0
1981-08-30 12:02:07.770 ,7,0,1.,1.2,1.,1.2,0.,1.2,,0.0,,0.0
1981-08-30 12:02:08.970 ,7,0,1.,1.2,0.,1.2,0.,1.2,,0.0,,0.0
1981-08-30 12:02:10.170 ,7,0,0.,1.2,0.,1.2,0.,1.2,,0.0,,0.0
1981-08-30 12:02:11.370 ,7,0,1.,1.2,0.,1.2,0.,1.2,,0.0,,0.0
1981-08-30 12:02:12.570 ,7,0,0.,1.2,0.,1.2,0.,1.2,,0.0,,0.0
1981-08-30 12:02:13.770 ,7,0,0.,1.2,0.,1.2,0.,1.2,,0.0,,0.0
1981-08-30 12:02:14.970 ,7,0,0.,1.2,0.,1.2,0.,1.2,,0.0,,0.0
1981-08-30 12:02:16.170 ,7,0,0.,1.2,0.,1.2,0.,1.2,,0.0,,0.0
1981-08-30 12:02:17.370 ,7,0,0.,1.2,0.,1.2,0.,1.2,,0.0,,0.0
1981-08-30 12:02:18.570 ,7,0,0.,1.2,0.,1.2,0.,1.2,,0.0,,0.0
1981-08-30 12:02:19.770 ,7,0,0.,1.2,0.,1.2,0.,1.2,,0.0,,0.0
1981-08-30 12:02:20.970 ,7,0,0.,1.2,0.,1.2,0.,1.2,,0.0,,0.0
1981-08-30 12:02:22.170 ,7,0,,0,,0,,0,,0,,0
1981-08-30 12:02:23.370 ,7,0,1.,1.2,1.,1.2,0.,1.2,,0.0,,0.0
1981-08-30 12:02:24.570 ,7,0,0.,1.2,0.,1.2,0.,1.2,,0.0,,0.0
1981-08-30 12:02:25.770 ,7,0,0.,1.2,0.,1.2,0.,1.2,,0.0,,0.0
1981-08-30 12:02:26.970 ,7,0,1.,1.2,1.,1.2,0.,1.2,,0.0,,0.0
1981-08-30 12:02:28.170 ,7,0,0.,1.2,0.,1.2,0.,1.2,,0.0,,0.0
1981-08-30 12:02:29.370 ,7,0,0.,1.2,0.,1.2,0.,1.2,,0.0,,0.0
1981-08-30 12:02:30.570 ,7,0,0.,1.2,0.,1.2,0.,1.2,,0.0,,0.0
1981-08-30 12:02:31.770 ,7,0,0.,1.2,0.,1.2,0.,1.2,,0.0,,0.0
1981-08-30 12:02:32.970 ,7,0,0.,1.2,0.,1.2,0.,1.2,,0.0,,0.0
1981-08-30 12:02:34.170 ,7,0,0.,1.2,0.,1.2,0.,1.2,,0.0,,0.0
1981-08-30 12:02:35.370 ,7,0,0.,1.2,0.,1.2,0.,1.2,,0.0,,0.0
1981-08-30 12:02:36.570 ,7,0,0.,1.2,0.,1.2,0.,1.2,,0.0,,0.0
1981-08-30 12:02:37.770 ,7,0,0.,1.2,0.,1.2,0.,1.2,,0.0,,0.0
1981-08-30 12:02:38.970 ,7,0,0.,1.2,0.,1.2,0.,1.2,,0.0,,0.0
1981-08-30 12:02:40.170 ,7,0,0.,1.2,0.,1.2,0.,1.2,,0.0,,0.0
1981-08-30 12:02:41.370 ,7,0,1.,1.2,1.,1.2,0.,1.2,,0.0,,0.0
1981-08-30 12:02:42.570 ,7,0,0.,1.2,0.,1.2,0.,1.2,,0.0,,0.0
1981-08-30 12:02:43.770 ,7,0,0.,1.2,0.,1.2,0.,1.2,,0.0,,0.0
1981-08-30 12:02:44.970 ,7,0,1.,1.2,1.,1.2,0.,1.2,,0.0,,0.0
1981-08-30 12:02:46.170 ,7,0,0.,1.2,0.,1.2,0.,1.2,,0.0,,0.0
1981-08-30 12:02:47.370 ,7,0,0.,1.2,0.,1.2,0.,1.2,,0.0,,0.0
1981-08-30 12:02:48.570 ,7,0,0.,1.2,0.,1.2,0.,1.2,,0.0,,0.0
1981-08-30 12:02:49.770 ,7,0,1.,1.2,0.,1.2,0.,1.2,,0.0,,0.0
1981-08-30 12:02:50.970 ,7,0,1.,1.2,1.,1.2,0.,1.2,,0.0,,0.0
1981-08-30 12:02:52.170 ,7,0,1.,1.2,0.,1.2,0.,1.2,,0.0,,0.0
1981-08-30 12:02:53.370 ,7,0,0.,1.2,0.,1.2,0.,1.2,,0.0,,0.0
1981-08-30 12:02:54.570 ,7,0,0.,1.2,0.,1.2,0.,1.2,,0.0,,0.0
1981-08-30 12:02:55.770 ,7,0,0.,1.2,0.,1.2,0.,1.2,,0.0,,0.0
1981-08-30 12:02:56.970 ,7,0,0.,1.2,0.,1.2,0.,1.2,,0.0,,0.0
1981-08-30 12:02:58.170 ,7,0,1.,1.2,0.,1.2,0.,1.2,,0.0,,0.0
1981-08-30 12:02:59.370 ,7,0,0.,1.2,0.,1.2,0.,1.2,,0.0,,0.0
1981-08-30 12:03:00.570 ,7,0,0.,1.2,0.,1.2,0.,1.2,,0.0,,0.0
1981-08-30 12:03:01.770 ,7,0,0.,1.2,0.,1.2,0.,1.2,,0.0,,0.0
1981-08-30 12:03:02.970 ,7,0,0.,1.2,0.,1.2,0.,1.2,,0.0,,0.0
1981-08-30 12:03:04.170 ,7,0,0.,1.2,0.,1.2,0.,1.2,,0.0,,0.0
1981-08-30 12:03:05.370 ,7,0,0.,1.2,0.,1.2,0.,1.2,,0.0,,0.0
1981-08-30 12:03:06.570 ,7,0,0.,1.2,0.,1.2,0.,1.2,,0.0,,0.0
1981-08-30 12:03:07.770 ,7,0,1.,1.2,1.,1.2,0.,1.2,,0.0,,0.0
1981-08-30 12:03:08.970 ,7,0,0.,1.2,0.,1.2,0.,1.2,,0.0,,0.0
1981-08-30 12:03:10.170 ,7,0,0.,1.2,0.,1.2,0.,1.2,,0.0,,0.0
1981-08-30 12:03:11.370 ,6,0,0.,1.2,0.,1.2,0.,1.2,,0.0,,0.0
1981-08-30 12:03:12.570 ,6,0,0.,1.2,0.,1.2,0.,1.2,,0.0,,0.0
1981-08-30 12:03:13.770 ,6,0,0.,1.2,0.,1.2,0.,1.2,,0.0,,0.0
1981-08-30 12:03:14.970 ,6,0,0.,1.2,0.,1.2,0.,1.2,,0.0,,0.0
1981-08-30 12:03:16.170 ,6,0,1.,1.2,1.,1.2,0.,1.2,,0.0,,0.0
1981-08-30 12:03:17.370 ,6,0,0.,1.2,0.,1.2,0.,1.2,,0.0,,0.0
1981-08-30 12:03:18.570 ,6,0,0.,1.2,0.,1.2,0.,1.2,,0.0,,0.0
1981-08-30 12:03:19.770 ,6,0,1.,1.2,0.,1.2,0.,1.2,,0.0,,0.0
1981-08-30 12:03:20.970 ,6,0,0.,1.2,0.,1.2,0.,1.2,,0.0,,0.0
1981-08-30 12:03:22.170 ,6,0,1.,1.2,0.,1.2,0.,1.2,,0.0,,0.0
1981-08-30 12:03:23.370 ,6,0,0.,1.2,0.,1.2,0.,1.2,,0.0,,0.0
1981-08-30 12:03:24.570 ,6,0,0.,1.2,0.,1.2,0.,1.2,,0.0,,0.0
1981-08-30 12:03:25.770 ,6,0,0.,1.2,0.,1.2,0.,1.2,,0.0,,0.0
1981-08-30 12:03:26.970 ,6,0,1.,1.2,0.,1.2,0.,1.2,,0.0,,0.0
1981-08-30 12:03:28.170 ,6,0,0.,1.2,0.,1.2,0.,1.2,,0.0,,0.0
1981-08-30 12:03:29.370 ,6,0,0.,1.2,0.,1.2,0.,1.2,,0.0,,0.0
1981-08-30 12:03:30.570 ,6,0,1.,1.2,1.,1.2,1.,1.2,,0.0,,0.0
1981-08-30 12:03:31.770 ,6,0,0.,1.2,0.,1.2,0.,1.2,,0.0,,0.0
1981-08-30 12:03:32.970 ,6,0,0.,1.2,0.,1.2,0.,1.2,,0.0,,0.0
1981-08-30 12:03:34.170 ,6,0,0.,1.2,0.,1.2,0.,1.2,,0.0,,0.0
1981-08-30 12:03:35.370 ,6,0,1.,1.2,0.,1.2,0.,1.2,,0.0,,0.0
1981-08-30 12:03:36.570 ,6,0,1.,1.2,0.,1.2,0.,1.2,,0.0,,0.0
1981-08-30 12:03:37.770 ,6,0,0.,1.2,0.,1.2,0.,1.2,,0.0,,0.0
1981-08-30 12:03:38.970 ,6,0,0.,1.2,0.,1.2,0.,1.2,,0.0,,0.0
1981-08-30 12:03:40.170 ,6,0,0.,1.2,0.,1.2,0.,1.2,,0.0,,0.0
1981-08-30 12:03:41.370 ,6,0,0.,1.2,0.,1.2,0.,1.2,,0.0,,0.0
1981-08-30 12:03:42.570 ,6,0,0.,1.2,0.,1.2,0.,1.2,,0.0,,0.0
1981-08-30 12:03:43.770 ,6,0,1.,1.2,0.,1.2,0.,1.2,,0.0,,0.0
1981-08-30 12:03:44.970 ,6,0,0.,1.2,0.,1.2,0.,1.2,,0.0,,0.0
1981-08-30 12:03:46.170 ,6,0,0.,1.2,0.,1.2,0.,1.2,,0.0,,0.0
1981-08-30 12:03:47.370 ,6,0,0.,1.2,0.,1.2,0.,1.2,,0.0,,0.0
1981-08-30 12:03:48.570 ,6,0,0.,1.2,0.,1.2,0.,1.2,,0.0,,0.0
1981-08-30 12:03:49.770 ,6,0,0.,1.2,0.,1.2,0.,1.2,,0.0,,0.0
1981-08-30 12:03:50.970 ,6,0,0.,1.2,0.,1.2,0.,1.2,,0.0,,0.0
1981-08-30 12:03:52.170 ,6,0,0.,1.2,0.,1.2,0.,1.2,,0.0,,0.0
1981-08-30 12:03:53.370 ,6,0,1.,1.2,0.,1.2,0.,1.2,,0.0,,0.0
1981-08-30 12:03:54.570 ,6,0,0.,1.2,0.,1.2,0.,1.2,,0.0,,0.0
1981-08-30 12:03:55.770 ,6,0,1.,1.2,1.,1.2,1.,1.2,,0.0,,0.0
1981-08-30 12:03:56.970 ,6,0,0.,1.2,0.,1.2,0.,1.2,,0.0,,0.0
1981-08-30 12:03:58.170 ,6,0,1.,1.2,0.,1.2,0.,1.2,,0.0,,0.0
1981-08-30 12:03:59.370 ,5,0,0.,1.2,0.,1.2,0.,1.2,,0.0,,0.0
1981-08-30 12:04:00.570 ,5,0,0.,1.2,0.,1.2,0.,1.2,,0.0,,0.0
1981-08-30 12:04:01.770 ,5,0,0.,1.2,0.,1.2,0.,1.2,,0.0,,0.0
1981-08-30 12:04:02.970 ,5,0,0.,1.2,0.,1.2,0.,1.2,,0.0,,0.0
1981-08-30 12:04:04.170 ,5,0,0.,1.2,0.,1.2,0.,1.2,,0.0,,0.0
1981-08-30 12:04:05.370 ,5,0,0.,1.2,0.,1.2,0.,1.2,,0.0,,0.0
1981-08-30 12:04:06.570 ,5,0,0.,1.2,0.,1.2,0.,1.2,,0.0,,0.0
1981-08-30 12:04:07.770 ,5,0,0.,1.2,0.,1.2,0.,1.2,,0.0,,0.0
1981-08-30 12:04:08.970 ,5,0,0.,1.2,0.,1.2,0.,1.2,,0.0,,0.0
1981-08-30 12:04:10.170 ,5,0,0.,1.2,0.,1.2,0.,1.2,,0.0,,0.0
1981-08-30 12:04:11.370 ,5,0,0.,1.2,0.,1.2,0.,1.2,,0.0,,0.0
1981-08-30 12:04:12.570 ,5,0,0.,1.2,0.,1.2,0.,1.2,,0.0,,0.0
1981-08-30 12:04:13.770 ,5,0,1.,1.2,0.,1.2,0.,1.2,,0.0,,0.0
1981-08-30 12:04:14.970 ,5,0,1.,1.2,0.,1.2,0.,1.2,,0.0,,0.0
1981-08-30 12:04:16.170 ,5,0,1.,1.2,1.,1.2,1.,1.2,,0.0,,0.0
1981-08-30 12:04:17.370 ,5,0,1.,1.2,0.,1.2,0.,1.2,,0.0,,0.0
1981-08-30 12:04:18.570 ,5,0,0.,1.2,0.,1.2,0.,1.2,,0.0,,0.0
1981-08-30 12:04:19.770 ,5,0,0.,1.2,0.,1.2,0.,1.2,,0.0,,0.0
1981-08-30 12:04:20.970 ,5,0,0.,1.2,0.,1.2,0.,1.2,,0.0,,0.0
1981-08-30 12:04:22.170 ,5,0,0.,1.2,0.,1.2,0.,1.2,,0.0,,0.0
1981-08-30 12:04:23.370 ,5,0,0.,1.2,0.,1.2,0.,1.2,,0.0,,0.0
1981-08-30 12:04:24.570 ,5,0,0.,1.2,0.,1.2,0.,1.2,,0.0,,0.0
1981-08-30 12:04:25.770 ,5,0,2.,1.2,0.,1.2,0.,1.2,,0.0,,0.0
1981-08-30 12:04:26.970 ,5,0,0.,1.2,0.,1.2,0.,1.2,,0.0,,0.0
1981-08-30 12:04:28.170 ,5,0,0.,1.2,0.,1.2,0.,1.2,,0.0,,0.0
1981-08-30 12:04:29.370 ,5,0,0.,1.2,0.,1.2,0.,1.2,,0.0,,0.0
1981-08-30 12:04:30.570 ,5,0,1.,1.2,1.,1.2,1.,1.2,,0.0,,0.0
1981-08-30 12:04:31.770 ,5,0,1.,1.2,1.,1.2,0.,1.2,,0.0,,0.0
1981-08-30 12:04:32.970 ,5,0,0.,1.2,0.,1.2,0.,1.2,,0.0,,0.0
1981-08-30 12:04:34.170 ,5,0,0.,1.2,0.,1.2,0.,1.2,,0.0,,0.0
1981-08-30 12:04:35.370 ,5,0,1.,1.2,0.,1.2,0.,1.2,,0.0,,0.0
1981-08-30 12:04:36.570 ,5,0,0.,1.2,0.,1.2,0.,1.2,,0.0,,0.0
1981-08-30 12:04:37.770 ,5,0,0.,1.2,0.,1.2,0.,1.2,,0.0,,0.0
1981-08-30 12:04:38.970 ,5,0,0.,1.2,0.,1.2,0.,1.2,,0.0,,0.0
1981-08-30 12:04:40.170 ,5,0,1.,1.2,0.,1.2,0.,1.2,,0.0,,0.0
1981-08-30 12:04:41.370 ,5,0,0.,1.2,0.,1.2,0.,1.2,,0.0,,0.0
1981-08-30 12:04:42.570 ,5,0,0.,1.2,0.,1.2,0.,1.2,,0.0,,0.0
1981-08-30 12:04:43.770 ,5,0,1.,1.2,0.,1.2,0.,1.2,,0.0,,0.0
1981-08-30 12:04:44.970 ,5,0,0.,1.2,0.,1.2,0.,1.2,,0.0,,0.0
1981-08-30 12:04:46.170 ,5,0,0.,1.2,0.,1.2,0.,1.2,,0.0,,0.0
1981-08-30 12:04:47.370 ,4,0,0.,1.2,0.,1.2,0.,1.2,,0.0,,0.0
1981-08-30 12:04:48.570 ,4,0,0.,1.2,0.,1.2,0.,1.2,,0.0,,0.0
1981-08-30 12:04:49.770 ,4,0,1.,1.2,1.,1.2,0.,1.2,,0.0,,0.0
1981-08-30 12:04:50.970 ,4,0,0.,1.2,0.,1.2,0.,1.2,,0.0,,0.0
1981-08-30 12:04:52.170 ,4,0,0.,1.2,0.,1.2,0.,1.2,,0.0,,0.0
1981-08-30 12:04:53.370 ,4,0,0.,1.2,0.,1.2,0.,1.2,,0.0,,0.0
1981-08-30 12:04:54.570 ,4,0,0.,1.2,0.,1.2,0.,1.2,,0.0,,0.0
1981-08-30 12:04:55.770 ,4,0,0.,1.2,0.,1.2,0.,1.2,,0.0,,0.0
1981-08-30 12:04:56.970 ,4,0,0.,1.2,0.,1.2,0.,1.2,,0.0,,0.0
1981-08-30 12:04:58.170 ,4,0,1.,1.2,0.,1.2,0.,1.2,,0.0,,0.0
1981-08-30 12:04:59.370 ,4,0,0.,1.2,0.,1.2,0.,1.2,,0.0,,0.0
1981-08-30 12:05:00.570 ,4,0,1.,1.2,0.,1.2,0.,1.2,,0.0,,0.0
1981-08-30 12:05:01.770 ,4,0,0.,1.2,0.,1.2,0.,1.2,,0.0,,0.0
1981-08-30 12:05:02.970 ,4,0,0.,1.2,0.,1.2,0.,1.2,,0.0,,0.0
1981-08-30 12:05:04.170 ,4,0,0.,1.2,0.,1.2,0.,1.2,,0.0,,0.0
1981-08-30 12:05:05.370 ,4,0,0.,1.2,0.,1.2,0.,1.2,,0.0,,0.0
1981-08-30 12:05:06.570 ,4,0,0.,1.2,0.,1.2,0.,1.2,,0.0,,0.0
1981-08-30 12:05:07.770 ,4,0,0.,1.2,0.,1.2,0.,1.2,,0.0,,0.0
1981-08-30 12:05:08.970 ,4,0,1.,1.2,1.,1.2,0.,1.2,,0.0,,0.0
1981-08-30 12:05:10.170 ,4,0,0.,1.2,0.,1.2,0.,1.2,,0.0,,0.0
1981-08-30 12:05:11.370 ,4,0,0.,1.2,0.,1.2,0.,1.2,,0.0,,0.0
1981-08-30 12:05:12.570 ,4,0,0.,1.2,0.,1.2,0.,1.2,,0.0,,0.0
1981-08-30 12:05:13.770 ,4,0,0.,1.2,0.,1.2,0.,1.2,,0.0,,0.0
1981-08-30 12:05:14.970 ,4,0,0.,1.2,0.,1.2,0.,1.2,,0.0,,0.0
1981-08-30 12:05:16.170 ,4,0,0.,1.2,0.,1.2,0.,1.2,,0.0,,0.0
1981-08-30 12:05:17.370 ,4,0,1.,1.2,1.,1.2,0.,1.2,,0.0,,0.0
1981-08-30 12:05:18.570 ,4,0,0.,1.2,0.,1.2,0.,1.2,,0.0,,0.0
1981-08-30 12:05:19.770 ,4,0,0.,1.2,0.,1.2,0.,1.2,,0.0,,0.0
1981-08-30 12:05:20.970 ,4,0,0.,1.2,0.,1.2,0.,1.2,,0.0,,0.0
1981-08-30 12:05:22.170 ,4,0,0.,1.2,0.,1.2,0.,1.2,,0.0,,0.0
1981-08-30 12:05:23.370 ,4,0,0.,1.2,0.,1.2,0.,1.2,,0.0,,0.0
1981-08-30 12:05:24.570 ,4,0,1.,1.2,1.,1.2,1.,1.2,,0.0,,0.0
1981-08-30 12:05:25.770 ,4,0,0.,1.2,0.,1.2,0.,1.2,,0.0,,0.0
1981-08-30 12:05:26.970 ,4,0,0.,1.2,0.,1.2,0.,1.2,,0.0,,0.0
1981-08-30 12:05:28.170 ,4,0,0.,1.2,0.,1.2,0.,1.2,,0.0,,0.0
1981-08-30 12:05:29.370 ,4,0,1.,1.2,0.,1.2,0.,1.2,,0.0,,0.0
1981-08-30 12:05:30.570 ,4,0,0.,1.2,0.,1.2,0.,1.2,,0.0,,0.0
1981-08-30 12:05:31.770 ,4,0,0.,1.2,0.,1.2,0.,1.2,,0.0,,0.0
1981-08-30 12:05:32.970 ,4,0,0.,1.2,0.,1.2,0.,1.2,,0.0,,0.0
1981-08-30 12:05:34.170 ,4,0,1.,1.2,1.,1.2,0.,1.2,,0.0,,0.0
1981-08-30 12:05:35.370 ,3,0,0.,1.2,0.,1.2,0.,1.2,,0.0,,0.0
1981-08-30 12:05:36.570 ,3,0,0.,1.2,0.,1.2,0.,1.2,,0.0,,0.0
1981-08-30 12:05:37.770 ,3,0,0.,1.2,0.,1.2,0.,1.2,,0.0,,0.0
1981-08-30 12:05:38.970 ,3,0,0.,1.2,0.,1.2,0.,1.2,,0.0,,0.0
1981-08-30 12:05:40.170 ,3,0,0.,1.2,0.,1.2,0.,1.2,,0.0,,0.0
1981-08-30 12:05:41.370 ,3,0,0.,1.2,0.,1.2,0.,1.2,,0.0,,0.0
1981-08-30 12:05:42.570 ,3,0,0.,1.2,0.,1.2,0.,1.2,,0.0,,0.0
1981-08-30 12:05:43.770 ,3,0,0.,1.2,0.,1.2,0.,1.2,,0.0,,0.0
1981-08-30 12:05:44.970 ,3,0,0.,1.2,0.,1.2,0.,1.2,,0.0,,0.0
1981-08-30 12:05:46.170 ,3,0,1.,1.2,0.,1.2,0.,1.2,,0.0,,0.0
1981-08-30 12:05:47.370 ,3,0,1.,1.2,1.,1.2,1.,1.2,,0.0,,0.0
1981-08-30 12:05:48.570 ,3,0,0.,1.2,0.,1.2,0.,1.2,,0.0,,0.0
1981-08-30 12:05:49.770 ,3,0,0.,1.2,0.,1.2,0.,1.2,,0.0,,0.0
1981-08-30 12:05:50.970 ,3,0,0.,1.2,0.,1.2,0.,1.2,,0.0,,0.0
1981-08-30 12:05:52.170 ,3,0,2.,1.2,2.,1.2,0.,1.2,,0.0,,0.0
1981-08-30 12:05:53.370 ,3,0,1.,1.2,1.,1.2,1.,1.2,,0.0,,0.0
1981-08-30 12:05:54.570 ,3,0,0.,1.2,0.,1.2,0.,1.2,,0.0,,0.0
1981-08-30 12:05:55.770 ,3,0,0.,1.2,0.,1.2,0.,1.2,,0.0,,0.0
1981-08-30 12:05:56.970 ,3,0,0.,1.2,0.,1.2,0.,1.2,,0.0,,0.0
1981-08-30 12:05:58.170 ,3,0,1.,1.2,1.,1.2,0.,1.2,,0.0,,0.0
1981-08-30 12:05:59.370 ,3,0,1.,1.2,1.,1.2,0.,1.2,,0.0,,0.0
1981-08-30 12:06:00.570 ,3,0,0.,1.2,0.,1.2,0.,1.2,,0.0,,0.0
1981-08-30 12:06:01.770 ,3,0,0.,1.2,0.,1.2,0.,1.2,,0.0,,0.0
1981-08-30 12:06:02.970 ,3,0,0.,1.2,0.,1.2,0.,1.2,,0.0,,0.0
1981-08-30 12:06:04.170 ,3,0,0.,1.2,0.,1.2,0.,1.2,,0.0,,0.0
1981-08-30 12:06:05.370 ,3,0,0.,1.2,0.,1.2,0.,1.2,,0.0,,0.0
1981-08-30 12:06:06.570 ,3,0,0.,1.2,0.,1.2,0.,1.2,,0.0,,0.0
1981-08-30 12:06:07.770 ,3,0,0.,1.2,0.,1.2,0.,1.2,,0.0,,0.0
1981-08-30 12:06:08.970 ,3,0,0.,1.2,0.,1.2,0.,1.2,,0.0,,0.0
1981-08-30 12:06:10.170 ,3,0,0.,1.2,0.,1.2,0.,1.2,,0.0,,0.0
1981-08-30 12:06:11.370 ,3,0,0.,1.2,0.,1.2,0.,1.2,,0.0,,0.0
1981-08-30 12:06:12.570 ,3,0,0.,1.2,0.,1.2,0.,1.2,,0.0,,0.0
1981-08-30 12:06:13.770 ,3,0,0.,1.2,0.,1.2,0.,1.2,,0.0,,0.0
1981-08-30 12:06:14.970 ,3,0,1.,1.2,1.,1.2,1.,1.2,,0.0,,0.0
1981-08-30 12:06:16.170 ,3,0,0.,1.2,0.,1.2,0.,1.2,,0.0,,0.0
1981-08-30 12:06:17.370 ,3,0,0.,1.2,0.,1.2,0.,1.2,,0.0,,0.0
1981-08-30 12:06:18.570 ,3,0,0.,1.2,0.,1.2,0.,1.2,,0.0,,0.0
1981-08-30 12:06:19.770 ,3,0,0.,1.2,0.,1.2,0.,1.2,,0.0,,0.0
1981-08-30 12:06:20.970 ,3,0,0.,1.2,0.,1.2,0.,1.2,,0.0,,0.0
1981-08-30 12:06:22.170 ,3,0,0.,1.2,0.,1.2,0.,1.2,,0.0,,0.0
1981-08-30 12:06:23.370 ,2,0,0.,1.2,0.,1.2,0.,1.2,,0.0,,0.0
1981-08-30 12:06:24.570 ,2,0,0.,1.2,0.,1.2,0.,1.2,,0.0,,0.0
1981-08-30 12:06:25.770 ,2,0,0.,1.2,0.,1.2,0.,1.2,,0.0,,0.0
1981-08-30 12:06:26.970 ,2,0,0.,1.2,0.,1.2,0.,1.2,,0.0,,0.0
1981-08-30 12:06:28.170 ,2,0,0.,1.2,0.,1.2,0.,1.2,,0.0,,0.0
1981-08-30 12:06:29.370 ,2,0,0.,1.2,0.,1.2,0.,1.2,,0.0,,0.0
1981-08-30 12:06:30.570 ,2,0,0.,1.2,0.,1.2,0.,1.2,,0.0,,0.0
1981-08-30 12:06:31.770 ,2,0,0.,1.2,0.,1.2,0.,1.2,,0.0,,0.0
1981-08-30 12:06:32.970 ,2,0,0.,1.2,0.,1.2,0.,1.2,,0.0,,0.0
1981-08-30 12:06:34.170 ,2,0,0.,1.2,0.,1.2,0.,1.2,,0.0,,0.0
1981-08-30 12:06:35.370 ,2,0,1.,1.2,0.,1.2,0.,1.2,,0.0,,0.0
1981-08-30 12:06:36.570 ,2,0,0.,1.2,0.,1.2,0.,1.2,,0.0,,0.0
1981-08-30 12:06:37.770 ,2,0,0.,1.2,0.,1.2,0.,1.2,,0.0,,0.0
1981-08-30 12:06:38.970 ,2,0,0.,1.2,0.,1.2,0.,1.2,,0.0,,0.0
1981-08-30 12:06:40.170 ,2,0,0.,1.2,0.,1.2,0.,1.2,,0.0,,0.0
1981-08-30 12:06:41.370 ,2,0,0.,1.2,0.,1.2,0.,1.2,,0.0,,0.0
1981-08-30 12:06:42.570 ,2,0,0.,1.2,0.,1.2,0.,1.2,,0.0,,0.0
1981-08-30 12:06:43.770 ,2,0,0.,1.2,0.,1.2,0.,1.2,,0.0,,0.0
1981-08-30 12:06:44.970 ,2,0,0.,1.2,0.,1.2,0.,1.2,,0.0,,0.0
1981-08-30 12:06:46.170 ,2,0,0.,1.2,0.,1.2,0.,1.2,,0.0,,0.0
1981-08-30 12:06:47.370 ,2,0,0.,1.2,0.,1.2,0.,1.2,,0.0,,0.0
1981-08-30 12:06:48.570 ,2,0,0.,1.2,0.,1.2,0.,1.2,,0.0,,0.0
1981-08-30 12:06:49.770 ,2,0,0.,1.2,0.,1.2,0.,1.2,,0.0,,0.0
1981-08-30 12:06:50.970 ,2,0,0.,1.2,0.,1.2,0.,1.2,,0.0,,0.0
1981-08-30 12:06:52.170 ,2,0,0.,1.2,0.,1.2,0.,1.2,,0.0,,0.0
1981-08-30 12:06:53.370 ,2,0,0.,1.2,0.,1.2,0.,1.2,,0.0,,0.0
1981-08-30 12:06:54.570 ,2,0,0.,1.2,0.,1.2,0.,1.2,,0.0,,0.0
1981-08-30 12:06:55.770 ,2,0,0.,1.2,0.,1.2,0.,1.2,,0.0,,0.0
1981-08-30 12:06:56.970 ,2,0,0.,1.2,0.,1.2,0.,1.2,,0.0,,0.0
1981-08-30 12:06:58.170 ,2,0,0.,1.2,0.,1.2,0.,1.2,,0.0,,0.0
1981-08-30 12:06:59.370 ,2,0,0.,1.2,0.,1.2,0.,1.2,,0.0,,0.0
1981-08-30 12:07:00.570 ,2,0,0.,1.2,0.,1.2,0.,1.2,,0.0,,0.0
1981-08-30 12:07:01.770 ,2,0,0.,1.2,0.,1.2,0.,1.2,,0.0,,0.0
1981-08-30 12:07:02.970 ,2,0,0.,1.2,0.,1.2,0.,1.2,,0.0,,0.0
1981-08-30 12:07:04.170 ,2,0,0.,1.2,0.,1.2,0.,1.2,,0.0,,0.0
1981-08-30 12:07:05.370 ,2,0,0.,1.2,0.,1.2,0.,1.2,,0.0,,0.0
1981-08-30 12:07:06.570 ,2,0,0.,1.2,0.,1.2,0.,1.2,,0.0,,0.0
1981-08-30 12:07:07.770 ,2,0,0.,1.2,0.,1.2,0.,1.2,,0.0,,0.0
1981-08-30 12:07:08.970 ,2,0,0.,1.2,0.,1.2,0.,1.2,,0.0,,0.0
1981-08-30 12:07:10.170 ,2,0,0.,1.2,0.,1.2,0.,1.2,,0.0,,0.0
1981-08-30 12:07:11.370 ,1,0,1.,1.2,1.,1.2,1.,1.2,,0.0,,0.0
1981-08-30 12:07:12.570 ,1,0,0.,1.2,0.,1.2,0.,1.2,,0.0,,0.0
1981-08-30 12:07:13.770 ,1,0,0.,1.2,0.,1.2,0.,1.2,,0.0,,0.0
1981-08-30 12:07:14.970 ,1,0,0.,1.2,0.,1.2,0.,1.2,,0.0,,0.0
1981-08-30 12:07:16.170 ,1,0,0.,1.2,0.,1.2,0.,1.2,,0.0,,0.0
1981-08-30 12:07:17.370 ,1,0,0.,1.2,0.,1.2,0.,1.2,,0.0,,0.0
1981-08-30 12:07:18.570 ,1,0,0.,1.2,0.,1.2,0.,1.2,,0.0,,0.0
1981-08-30 12:07:19.770 ,1,0,0.,1.2,0.,1.2,0.,1.2,,0.0,,0.0
1981-08-30 12:07:20.970 ,1,0,0.,1.2,0.,1.2,0.,1.2,,0.0,,0.0
1981-08-30 12:07:22.170 ,1,0,1.,1.2,1.,1.2,0.,1.2,,0.0,,0.0
1981-08-30 12:07:23.370 ,1,0,0.,1.2,0.,1.2,0.,1.2,,0.0,,0.0
1981-08-30 12:07:24.570 ,1,0,0.,1.2,0.,1.2,0.,1.2,,0.0,,0.0
1981-08-30 12:07:25.770 ,1,0,0.,1.2,0.,1.2,0.,1.2,,0.0,,0.0
1981-08-30 12:07:26.970 ,1,0,0.,1.2,0.,1.2,0.,1.2,,0.0,,0.0
1981-08-30 12:07:28.170 ,1,0,0.,1.2,0.,1.2,0.,1.2,,0.0,,0.0
1981-08-30 12:07:29.370 ,1,0,1.,1.2,1.,1.2,0.,1.2,,0.0,,0.0
1981-08-30 12:07:30.570 ,1,0,0.,1.2,0.,1.2,0.,1.2,,0.0,,0.0
1981-08-30 12:07:31.770 ,1,0,0.,1.2,0.,1.2,0.,1.2,,0.0,,0.0
1981-08-30 12:07:32.970 ,1,0,0.,1.2,0.,1.2,0.,1.2,,0.0,,0.0
1981-08-30 12:07:34.170 ,1,0,0.,1.2,0.,1.2,0.,1.2,,0.0,,0.0
1981-08-30 12:07:35.370 ,1,0,0.,1.2,0.,1.2,0.,1.2,,0.0,,0.0
1981-08-30 12:07:36.570 ,1,0,0.,1.2,0.,1.2,0.,1.2,,0.0,,0.0
1981-08-30 12:07:37.770 ,1,0,0.,1.2,0.,1.2,0.,1.2,,0.0,,0.0
1981-08-30 12:07:38.970 ,1,0,0.,1.2,0.,1.2,0.,1.2,,0.0,,0.0
1981-08-30 12:07:40.170 ,1,0,0.,1.2,0.,1.2,0.,1.2,,0.0,,0.0
1981-08-30 12:07:41.370 ,1,0,0.,1.2,0.,1.2,0.,1.2,,0.0,,0.0
1981-08-30 12:07:42.570 ,1,0,0.,1.2,0.,1.2,0.,1.2,,0.0,,0.0
1981-08-30 12:07:43.770 ,1,0,0.,1.2,0.,1.2,0.,1.2,,0.0,,0.0
1981-08-30 12:07:44.970 ,1,0,0.,1.2,0.,1.2,0.,1.2,,0.0,,0.0
1981-08-30 12:07:46.170 ,1,0,0.,1.2,0.,1.2,0.,1.2,,0.0,,0.0
1981-08-30 12:07:47.370 ,1,0,0.,1.2,0.,1.2,0.,1.2,,0.0,,0.0
1981-08-30 12:07:48.570 ,1,0,0.,1.2,0.,1.2,0.,1.2,,0.0,,0.0
1981-08-30 12:07:49.770 ,1,0,0.,1.2,0.,1.2,0.,1.2,,0.0,,0.0
1981-08-30 12:07:50.970 ,1,0,0.,1.2,0.,1.2,0.,1.2,,0.0,,0.0
1981-08-30 12:07:52.170 ,1,0,0.,1.2,0.,1.2,0.,1.2,,0.0,,0.0
1981-08-30 12:07:53.370 ,1,0,0.,1.2,0.,1.2,0.,1.2,,0.0,,0.0
1981-08-30 12:07:54.570 ,1,0,0.,1.2,0.,1.2,0.,1.2,,0.0,,0.0
1981-08-30 12:07:55.770 ,1,0,1.,1.2,1.,1.2,0.,1.2,,0.0,,0.0
1981-08-30 12:07:56.970 ,1,0,0.,1.2,0.,1.2,0.,1.2,,0.0,,0.0
1981-08-30 12:07:58.170 ,1,0,1.,1.2,0.,1.2,0.,1.2,,0.0,,0.0
1981-08-30 12:07:59.370 ,0,0,0.,1.2,0.,1.2,0.,1.2,,0.0,,0.0
1981-08-30 12:08:00.570 ,0,0,0.,1.2,0.,1.2,0.,1.2,,0.0,,0.0
1981-08-30 12:08:01.770 ,0,0,0.,1.2,0.,1.2,0.,1.2,,0.0,,0.0
1981-08-30 12:08:02.970 ,0,0,0.,1.2,0.,1.2,0.,1.2,,0.0,,0.0
1981-08-30 12:08:04.170 ,0,0,1.,1.2,0.,1.2,0.,1.2,,0.0,,0.0
1981-08-30 12:08:05.370 ,0,0,0.,1.2,0.,1.2,0.,1.2,,0.0,,0.0
1981-08-30 12:08:06.570 ,0,0,0.,1.2,0.,1.2,0.,1.2,,0.0,,0.0
1981-08-30 12:08:07.770 ,0,0,1.,1.2,0.,1.2,0.,1.2,,0.0,,0.0
1981-08-30 12:08:08.970 ,0,0,0.,1.2,0.,1.2,0.,1.2,,0.0,,0.0
1981-08-30 12:08:10.170 ,0,0,0.,1.2,0.,1.2,0.,1.2,,0.0,,0.0
1981-08-30 12:08:11.370 ,0,0,0.,1.2,0.,1.2,0.,1.2,,0.0,,0.0
1981-08-30 12:08:12.570 ,0,0,1.,1.2,0.,1.2,0.,1.2,,0.0,,0.0